This is the latest recevied weather packets stored in our database for station/object N6GPM. If no packets are shown the sender has not sent any weather packets the latest 10 day(s).
| Time | Temp. | Humidity | Pressure | Rain* | Wind** | Luminosity | Snow |
|---|---|---|---|---|---|---|---|
| 1777733660 | 12.22° C | 95% | 1018.4 hPa | 0 mm | - | 96 W/m² | - |
| 1777733356 | 12.22° C | 94% | 1018.4 hPa | 0 mm | - | 86 W/m² | - |
| 1777733053 | 12.22° C | 94% | 1018.4 hPa | 0 mm | - | 91 W/m² | - |
| 1777732749 | 12.22° C | 94% | 1018.4 hPa | 0 mm | - | 81 W/m² | - |
| 1777732446 | 12.22° C | 94% | 1018.3 hPa | 0 mm | - | 77 W/m² | - |
| 1777732144 | 12.22° C | 94% | 1018.5 hPa | 0 mm | - | 64 W/m² | - |
| 1777731840 | 12.22° C | 94% | 1018.5 hPa | 0 mm | - | 59 W/m² | - |
| 1777731537 | 12.78° C | 94% | 1018.6 hPa | 0 mm | - | 52 W/m² | - |
| 1777731235 | 12.22° C | 94% | 1018.4 hPa | 0 mm | - | 53 W/m² | - |
| 1777730932 | 12.22° C | 94% | 1018.4 hPa | 0 mm | - | 44 W/m² | - |
| 1777730630 | 12.22° C | 94% | 1018.3 hPa | 0 mm | - | 40 W/m² | - |
| 1777730326 | 12.22° C | 94% | 1018.3 hPa | 0 mm | - | 33 W/m² | - |
| 1777730023 | 12.22° C | 94% | 1018.1 hPa | 0 mm | - | 34 W/m² | - |
| 1777729719 | 12.22° C | 94% | 1017.9 hPa | 0 mm | - | 31 W/m² | - |
| 1777729112 | 12.22° C | 93% | 1017.8 hPa | 0 mm | - | 26 W/m² | - |
| 1777728809 | 12.22° C | 93% | 1017.9 hPa | 0 mm | - | 21 W/m² | - |
| 1777728507 | 12.22° C | 93% | 1017.8 hPa | 0 mm | - | 17 W/m² | - |
| 1777728203 | 12.22° C | 93% | 1017.4 hPa | 0 mm | - | 14 W/m² | - |
| 1777727901 | 12.78° C | 93% | 1017.5 hPa | 0 mm | - | 10 W/m² | - |
| 1777727598 | 12.78° C | 93% | 1017.4 hPa | 0 mm | - | 8 W/m² | - |
| 1777727295 | 12.78° C | 92% | 1017.2 hPa | 0 mm | - | 5 W/m² | - |
| 1777726689 | 12.78° C | 92% | 1017 hPa | 0 mm | - | 1 W/m² | - |
| 1777726083 | 12.78° C | 91% | 1016.9 hPa | 0 mm | - | 0 W/m² | - |
| 1777725780 | 12.78° C | 91% | 1016.9 hPa | 0 mm | - | 0 W/m² | - |
| 1777725478 | 12.78° C | 91% | 1016.9 hPa | 0 mm | - | 0 W/m² | - |
* Rain latest hour (hover to see other rain measurements)
** Current wind speed in m/s (hover to see current wind gust speed)